{"data":{"norad_id":49082,"intl_designator":"2021-075H","name":"ONEWEB-0293","alt_names":[],"object_type":"PAYLOAD","status":"ACTIVE","operator":null,"country":"UK","launch_date":"2021-08-21","launch_site_code":"TYMSC","launch_vehicle":null,"mission":null,"orbit_class":"UNKNOWN","rcs_meters":null,"size_class":null,"mass_kg":null,"dimensions":null,"purposes":["comms"],"wikipedia_slug":null,"has_3d_model":false,"image_url":null,"decayed_at":null,"tle_current":{"epoch":"2026-05-25T02:29:44.782656Z","epoch_age_seconds":72892,"freshness":"FRESH","line1":"1 49082U 21075H   26145.10399054 -.00000001  00000+0 -36182-4 0  9993","line2":"2 49082  87.9152  10.4559 0001667  87.1205 273.0118 13.17651070230596","mean_motion":13.1765107,"eccentricity":0.0001667,"inclination_deg":87.9152,"raan_deg":10.4559,"arg_perigee_deg":87.1205,"mean_anomaly_deg":273.0118,"bstar":-3.6182e-5,"rev_number":23059,"period_min":109.28538159955,"perigee_km":1192.4431036084,"apogee_km":1194.9675558411,"semimajor_km":7571.8423297247,"source":"CELESTRAK","updated_at":"2026-05-25T13:38:22.482002Z"}}}